ICT,Max TemperatureF,Mean TemperatureF,Min TemperatureF,Max Dew PointF,MeanDew PointF,Min DewpointF,Max Humidity, Mean Humidity, Min Humidity, Max Sea Level PressureIn, Mean Sea Level PressureIn, Min Sea Level PressureIn, Max VisibilityMiles, Mean VisibilityMiles, Min VisibilityMiles, Max Wind SpeedMPH, Mean Wind SpeedMPH, Max Gust SpeedMPH,PrecipitationIn, CloudCover, Events, WindDirDegrees
2012-9-1,90,82,73,77,74,72,94,80,58,29.89,29.82,29.75,6,6,5,12,3,,0.00,4,,274
2012-9-2,90,82,75,77,75,73,94,80,61,29.86,29.81,29.75,6,6,5,12,3,,0.00,5,,291
2012-9-3,88,82,75,77,75,73,94,77,63,29.83,29.79,29.74,6,6,5,16,4,,0.00,6,,282
2012-9-4,90,84,77,77,75,73,89,76,57,29.89,29.83,29.76,6,6,5,15,7,26,0.00,4,,296
2012-9-5,88,80,73,78,75,72,96,86,75,29.89,29.84,29.77,6,4,1,21,10,26,1.69,7,Rain,288
2012-9-6,87,80,73,76,74,72,100,81,70,29.89,29.82,29.74,6,5,2,25,15,28,0.63,6,Rain,258
2012-9-7,89,80,71,78,73,68,94,81,61,29.89,29.83,29.78,6,4,0,25,11,30,0.20,6,Rain,266
2012-9-8,89,82,74,77,74,70,96,81,52,29.92,29.86,29.80,6,6,6,15,3,,0.00,5,,349
2012-9-9,87,79,71,77,74,72,95,80,58,29.92,29.86,29.80,6,6,6,13,3,,0.00,4,,275
2012-9-10,89,82,76,78,75,72,94,79,68,29.92,29.87,29.80,6,6,3,13,4,,0.03,5,Rain,285
2012-9-11,86,80,73,78,73,72,94,79,65,29.92,29.87,29.79,6,5,2,21,10,31,0.16,6,Rain,269
2012-9-12,88,82,75,77,74,72,89,78,66,29.92,29.87,29.82,6,6,5,25,9,,0.00,6,Rain,258
2012-9-13,87,80,73,76,73,70,94,85,74,29.95,29.87,29.81,6,4,1,31,10,47,0.55,6,Rain,266
2012-9-14,87,80,74,77,73,72,94,77,66,29.89,29.82,29.76,6,5,1,24,15,,0.24,6,Rain,278
2012-9-15,87,80,73,77,74,70,94,82,66,29.86,29.82,29.76,6,4,1,25,9,32,1.10,6,Rain,276
2012-9-16,87,79,71,77,75,73,98,81,70,29.92,29.85,29.79,6,5,3,18,6,,0.08,6,Rain,275
2012-9-17,87,80,73,77,74,72,94,88,74,29.95,29.87,29.77,6,6,3,14,2,,0.47,6,Rain,246
2012-9-18,87,80,73,79,75,73,96,82,70,29.89,29.84,29.78,6,6,6,14,4,,0.04,5,,280
2012-9-19,85,80,74,77,74,72,94,82,68,29.92,29.85,29.76,6,5,2,24,13,23,0.28,6,Rain,274
2012-9-20,86,80,75,78,74,73,94,78,65,29.92,29.86,29.80,6,5,4,17,10,,0.00,6,Rain,286
2012-9-21,86,80,75,77,75,73,94,82,66,29.92,29.86,29.78,6,5,4,17,6,,0.08,6,Rain,279
2012-9-22,83,79,75,77,75,72,94,83,74,29.95,29.86,29.79,6,5,1,17,7,,1.02,6,Rain,283
2012-9-23,88,81,74,77,75,72,94,79,68,29.89,29.83,29.77,6,6,3,15,11,,0.16,5,Rain,279
2012-9-24,86,80,74,78,75,72,94,82,70,29.86,29.79,29.73,6,5,2,21,12,,0.63,6,Rain,283
2012-9-25,85,80,74,76,74,73,94,83,78,29.86,29.79,29.73,6,5,2,22,13,24,0.47,6,Rain,273
2012-9-26,81,77,73,77,74,70,95,88,74,29.92,29.85,29.77,6,3,1,28,10,39,2.60,7,Rain,283
2012-9-27,84,78,73,80,74,70,95,88,74,29.92,29.86,29.81,6,4,1,23,5,31,0.31,6,Rain,263
2012-9-28,85,79,73,78,74,72,94,84,78,29.92,29.85,29.79,6,5,1,14,7,28,0.75,6,Rain,273
2012-9-29,89,81,73,77,73,72,94,79,62,29.92,29.87,29.79,6,5,1,23,8,32,0.31,6,Rain,295
2012-9-30,87,80,73,76,74,72,94,78,66,29.95,29.88,29.80,6,6,5,14,6,,0.00,5,,299